GW5187 Weather Reports


time (UTC)temp
C
wind
direction
speed
KPH
gust
KPH
rain 1hr
cm
rain 24hr
cm
rain mn
cm
humidity
%
barometer
mb
20260503194007 15 265 6.4 14.5 0.00 0.00 0.00 67 1014.6
20260503193507 14 226 3.2 12.9 0.00 0.00 0.00 67 1014.4
20260503193011 14 311 3.2 17.7 0.00 0.00 0.00 67 1014.5
20260503192503 14 223 8.0 17.7 0.00 0.00 0.00 67 1014.6
20260503192004 14 236 4.8 14.5 0.00 0.00 0.00 67 1014.5
20260503191516 14 336 3.2 17.7 0.00 0.00 0.00 69 1014.5
20260503191006 14 217 4.8 17.7 0.00 0.00 0.00 68 1014.6
20260503190509 14 224 3.2 16.1 0.00 0.00 0.00 68 1014.7
20260503190018 14 257 3.2 16.1 0.00 0.00 0.00 70 1014.8
20260503185506 14 220 6.4 16.1 0.00 0.00 0.00 70 1014.7
20260503185008 13 217 4.8 12.9 0.00 0.00 0.00 71 1014.8
20260503184524 13 240 4.8 12.9 0.00 0.00 0.00 72 1014.7
20260503184009 13 253 6.4 12.9 0.00 0.00 0.00 72 1014.7
20260503183509 13 175 1.6 11.3 0.00 0.00 0.00 73 1014.7
20260503183029 13 273 6.4 12.9 0.00 0.00 0.00 72 1014.8
20260503182503 13 238 4.8 12.9 0.00 0.00 0.00 74 1014.8
20260503182004 13 212 1.6 11.3 0.00 0.00 0.00 76 1014.7
20260503181512 13 223 3.2 11.3 0.00 0.00 0.00 76 1014.7
20260503181005 12 221 3.2 12.9 0.00 0.00 0.00 77 1014.7
20260503180504 12 226 4.8 12.9 0.00 0.00 0.00 77 1014.7
20260503180016 12 223 1.6 12.9 0.00 0.00 0.00 77 1014.7
20260503175504 12 252 6.4 11.3 0.00 0.00 0.00 77 1014.7
20260503175007 12 234 3.2 9.7 0.00 0.00 0.00 78 1014.6
20260503174530 12 214 3.2 9.7 0.00 0.00 0.00 80 1014.7
20260503174007 12 213 1.6 9.7 0.00 0.00 0.00 1014.6
20260503173507 12 227 4.8 9.7 0.00 0.00 0.00 1014.6
20260503173034 12 250 1.6 14.5 0.00 0.00 0.00 1014.6
20260503172514 12 234 8.0 14.5 0.00 0.00 0.00 1014.6
20260503172010 12 186 3.2 12.9 0.00 0.00 0.00 1014.7
20260503171531 12 217 4.8 14.5 0.00 0.00 0.00 1014.7
20260503171003 12 224 4.8 11.3 0.00 0.00 0.00 1014.6
20260503170503 12 207 3.2 8.0 0.00 0.00 0.00 1014.6
20260503151003 10 251 3.2 11.3 0.00 0.00 0.00 93 1014.2
20260503150505 10 267 1.6 11.3 0.00 0.00 0.00 94 1014.2
20260503131006 10 242 0.0 3.2 0.00 0.00 0.00 93 1012.8
20260503130507 10 242 0.0 3.2 0.00 0.00 0.00 93 1012.7
20260503110506 10 242 0.0 3.2 0.00 0.00 0.00 91 1012.6
20260503090503 10 230 3.2 8.0 0.00 0.00 0.00 89 1012.8
20260503081004 10 269 1.6 3.2 0.00 0.00 0.00 88 1013.0
20260503080508 10 227 1.6 4.8 0.00 0.00 0.00 88 1013.0
20260503072509 10 194 0.0 3.2 0.00 0.00 0.00 88 1013.3
20260503070502 10 148 0.0 3.2 0.00 0.00 0.00 88 1013.2
20260503054006 11 234 0.0 3.2 0.00 0.00 0.00 85 1013.5
20260503052008 11 234 1.6 4.8 0.00 0.00 0.00 85 1013.7
20260503051008 11 245 0.0 4.8 0.00 0.00 0.00 85 1013.8
20260503050509 11 245 0.0 4.8 0.00 0.00 0.00 85 1013.7
20260503050024 11 202 0.0 6.4 0.00 0.00 0.00 85 1013.7
20260503045008 11 222 3.2 6.4 0.00 0.00 0.00 85 1013.7
20260503044526 11 215 1.6 8.0 0.00 0.00 0.00 85 1013.7
20260503044005 11 237 3.2 8.0 0.00 0.00 0.00 85 1013.6
20260503042008 11 239 1.6 4.8 0.00 0.00 0.00 84 1013.6
20260503041010 11 269 1.6 9.7 0.00 0.00 0.00 84 1013.4
20260503035508 11 265 3.2 6.4 0.00 0.00 0.00 84 1013.3
20260503035007 11 286 1.6 11.3 0.00 0.00 0.00 84 1013.1
20260503034526 11 215 3.2 11.3 0.00 0.00 0.00 84 1013.0
20260503034004 11 259 1.6 8.0 0.00 0.00 0.00 84 1012.9
20260503033510 11 261 3.2 8.0 0.00 0.00 0.00 84 1012.9
20260503032011 11 254 1.6 9.7 0.00 0.00 0.00 84 1012.8
20260503031007 11 249 3.2 8.0 0.00 0.00 0.00 84 1012.8
20260503030025 11 217 3.2 11.3 0.00 0.00 0.00 84 1012.8
20260503024014 11 239 1.6 6.4 0.00 0.00 0.00 84 1012.8
20260503023508 11 255 3.2 11.3 0.00 0.00 0.00 83 1012.9
20260503023012 11 212 0.0 11.3 0.00 0.00 0.00 82 1012.8
20260503022505 11 248 6.4 11.3 0.00 0.00 0.00 82 1012.8
20260503020511 11 248 3.2 8.0 0.00 0.00 0.00 82 1012.9
20260503015007 11 199 4.8 11.3 0.00 0.00 0.00 82 1012.8
20260503013506 12 283 4.8 11.3 0.00 0.00 0.00 81 1012.9
20260503012511 12 296 3.2 16.1 0.00 0.00 0.00 81 1012.8
20260503011515 12 232 4.8 14.5 0.00 0.00 0.00 82 1012.8
20260503010506 12 221 6.4 14.5 0.00 0.00 0.00 82 1012.9
20260503010026 12 205 4.8 17.7 0.00 0.00 0.00 82 1012.9
20260503005506 12 234 4.8 17.7 0.00 0.00 0.00 82 1013.0
20260503004012 12 240 3.2 17.7 0.00 0.00 0.00 82 1012.9
20260503002508 12 218 6.4 14.5 0.00 0.00 0.00 82 1012.8
20260503001008 12 187 8.0 19.3 0.00 0.00 0.00 83 1012.9
20260503000507 12 215 9.7 19.3 0.00 0.00 0.00 82 1013.0
20260502235504 12 221 8.0 16.1 0.00 0.00 0.00 80 1013.0
20260502235007 12 212 6.4 20.9 0.00 0.00 0.00 80 1013.0
20260502234523 12 227 9.7 20.9 0.00 0.00 0.00 80 1013.0
20260502233508 13 235 6.4 14.5 0.00 0.00 0.00 80 1013.0
20260502232509 13 259 4.8 19.3 0.00 0.00 0.00 80 1013.0
20260502232010 13 251 9.7 17.7 0.00 0.00 0.00 79 1013.0
20260502231507 13 238 6.4 17.7 0.00 0.00 0.00 79 1013.0
20260502230504 13 219 6.4 12.9 0.00 0.00 0.00 78 1013.1
20260502230017 13 314 6.4 17.7 0.00 0.00 0.00 79 1013.2
20260502225008 13 208 9.7 17.7 0.00 0.00 0.00 79 1013.4
20260502224520 14 249 4.8 14.5 0.00 0.00 0.00 78 1013.6
20260502223503 14 238 4.8 11.3 0.00 0.00 0.00 78 1013.9
20260502221509 15 292 0.0 11.3 0.00 0.00 0.00 78 1014.0
20260502221004 15 5 3.2 11.3 0.00 0.00 0.00 77 1014.1
20260502215006 16 352 1.6 16.1 0.00 0.00 0.00 74 1014.2
20260502214013 15 304 4.8 17.7 0.00 0.00 0.00 75 1014.3
20260502213507 15 257 4.8 16.1 0.00 0.00 0.00 74 1014.3
20260502211506 15 323 4.8 16.1 0.00 0.00 0.00 76 1014.5
20260502210506 15 295 6.4 14.5 0.00 0.00 0.00 73 1014.6
20260502210010 15 208 4.8 12.9 0.00 0.00 0.00 75 1014.6
20260502205504 15 277 6.4 11.3 0.00 0.00 0.00 74 1014.6
20260502203021 16 210 1.6 12.9 0.00 0.00 0.00 71 1014.7
20260502202508 16 236 4.8 12.9 0.00 0.00 0.00 71 1014.9
20260502201505 15 246 8.0 12.9 0.00 0.00 0.00 71 1015.2
20260502195502 15 315 1.6 9.7 0.00 0.00 0.00 74 1015.3
20260502195008 15 182 3.2 11.3 0.00 0.00 0.00 74 1015.4
20260502194515 14 238 4.8 11.3 0.00 0.00 0.00 73 1015.5